Flag for Aruba Weather past 2 weeks in Oranjestad, Aruba

Now
81 °F

Passing clouds.


Feels Like: 86 °F
Forecast: 81 / 89 °F
Wind: 17 mph from East

Location: Queen Beatrix Airport - Aruba

Current Time: Jul 6, 2015 at 6:17:31 AM

Latest Report: Jul 6, 2015 at 6:00 AM


Visibility: N/A

Pressure: 29.92 "Hg

Humidity: 84%

Dew point: 75 °F

Location of OranjestadLocation

Historic Weather in Oranjestad — Graph

°F

Oranjestad temperature yesterday

Maximum temperature yesterday: 90 °F (at 1:00 PM)
Minimum temperature yesterday: 81 °F (at 12:00 AM)
Average temperature yesterday: 84 °F

Past Weeks' High & Low Weather Summary

 TemperatureHumidityPressure
High91 °F (Jun 24, 2:00 PM)100% (Jun 21, 7:00 PM)29.98 "Hg (Jun 21, 7:00 PM)
Low36 °F (Jun 21, 7:00 PM)67% (Jun 21, 11:00 AM)29.80 "Hg (Jul 3, 4:00 PM)
Average83 °F81%29.92 "Hg
* Reported Jun 21 5:00 AM — Jul 6 5:00 AM, Oranjestad, Weather by CustomWeather, © 2015

Note: Actual official high and low records may vary slightly from our data, if they occured in-between our weather recording intervals... More about our weather records

Advertising

Oranjestad weather history for previous 24 hours

 ConditionsComfort  
Time TempWeatherWind HumidityBarometerVisibility
5:00 AM
Mon, Jul 6
81 °FPassing clouds.18 mph84%29.92 "HgN/A
4:00 AM81 °FPassing clouds.20 mph84%29.89 "HgN/A
3:00 AM81 °FPassing clouds.21 mph84%29.92 "HgN/A
2:00 AM82 °FPassing clouds.21 mph84%29.92 "HgN/A
1:00 AM82 °FPassing clouds.20 mph84%29.95 "HgN/A
12:00 AM82 °FPassing clouds.20 mph84%29.95 "HgN/A
11:00 PM
Sun, Jul 5
82 °FPassing clouds.15 mph84%29.98 "HgN/A
10:00 PM82 °FPassing clouds.16 mph84%29.95 "HgN/A
9:00 PM82 °FPassing clouds.15 mph84%29.95 "HgN/A
8:00 PM82 °FPassing clouds.18 mph84%29.95 "HgN/A
7:00 PM82 °FPassing clouds.20 mph84%29.92 "HgN/A
6:00 PM84 °FPassing clouds.21 mph79%29.89 "HgN/A
5:00 PM86 °FPassing clouds.23 mph79%29.89 "HgN/A
4:00 PM88 °FScattered clouds.23 mph75%29.89 "HgN/A
3:00 PM88 °FScattered clouds.23 mph75%29.92 "HgN/A
2:00 PM88 °FPassing clouds.29 mph75%29.92 "HgN/A
1:00 PM90 °FPassing clouds.29 mph71%29.92 "HgN/A
12:00 PM88 °FScattered clouds.24 mph75%29.92 "HgN/A
11:00 AM88 °FPassing clouds.26 mph70%29.92 "HgN/A
10:00 AM86 °FPassing clouds.28 mph75%29.95 "HgN/A
9:00 AM84 °FPassing clouds.25 mph79%29.92 "HgN/A
8:00 AM82 °FPassing clouds.23 mph84%29.92 "HgN/A
7:00 AM81 °FPassing clouds.18 mph84%29.92 "HgN/A
6:00 AM81 °FPassing clouds.18 mph84%29.92 "HgN/A
Weather by CustomWeather, © 2015

See weather overviewHow to use our weather pages